date,time,SUV Intensity [MED/Hr],UV Index,Daily total [MED],Since Last [MED]
02/06/2022,00:08:47,0.000,0.0,0.0,0.0
02/06/2022,00:10:46,0.001,0.0,0.0,0.0
02/06/2022,00:12:47,0.000,0.0,0.0,0.0
02/06/2022,00:14:46,0.000,0.0,0.0,0.0
02/06/2022,00:16:55,-0.000,0.0,0.0,0.0
02/06/2022,00:18:46,0.000,0.0,0.0,0.0
02/06/2022,00:20:46,0.000,0.0,0.0,0.0
02/06/2022,00:22:46,0.000,0.0,0.0,0.0
02/06/2022,00:24:47,0.001,0.0,0.0,0.0
02/06/2022,00:26:48,0.001,0.0,0.0,0.0
02/06/2022,00:28:47,0.000,0.0,0.0,0.0
02/06/2022,00:30:46,-0.001,0.0,0.0,0.0
02/06/2022,00:32:46,0.000,0.0,0.0,0.0
02/06/2022,00:34:47,0.001,0.0,0.0,0.0
02/06/2022,00:36:46,-0.001,0.0,0.0,0.0
02/06/2022,00:38:46,0.000,0.0,0.0,0.0
02/06/2022,00:40:47,0.001,0.0,0.0,0.0
02/06/2022,00:43:01,0.001,0.0,0.0,0.0
02/06/2022,00:44:47,0.001,0.0,0.0,0.0
02/06/2022,00:46:46,0.000,0.0,0.0,0.0
02/06/2022,00:48:47,0.001,0.0,0.0,0.0
02/06/2022,00:50:46,0.000,0.0,0.0,0.0
02/06/2022,00:53:03,0.000,0.0,0.0,0.0
02/06/2022,00:55:37,0.001,0.0,0.0,0.0
02/06/2022,00:57:49,0.001,0.0,0.0,0.0
02/06/2022,00:59:47,0.001,0.0,0.0,0.0
02/06/2022,01:01:47,0.000,0.0,0.0,0.0
02/06/2022,01:03:47,0.001,0.0,0.0,0.0
02/06/2022,01:05:47,0.001,0.0,0.0,0.0
02/06/2022,01:07:47,0.001,0.0,0.0,0.0
02/06/2022,01:09:46,0.001,0.0,0.0,0.0
02/06/2022,01:11:55,0.001,0.0,0.0,0.0
02/06/2022,01:13:50,0.001,0.0,0.0,0.0
02/06/2022,01:15:55,0.001,0.0,0.0,0.0
02/06/2022,01:17:46,0.001,0.0,0.0,0.0
02/06/2022,01:19:47,-0.000,0.0,0.0,0.0
02/06/2022,01:21:55,0.001,0.0,0.0,0.0
02/06/2022,01:24:47,0.001,0.0,0.0,0.0
02/06/2022,01:26:47,0.001,0.0,0.0,0.0
02/06/2022,01:28:46,0.001,0.0,0.0,0.0
02/06/2022,01:30:47,0.001,0.0,0.0,0.0
02/06/2022,01:32:46,0.001,0.0,0.0,0.0
02/06/2022,01:34:54,0.001,0.0,0.0,0.0
02/06/2022,01:36:47,0.001,0.0,0.0,0.0
02/06/2022,01:38:46,0.001,0.0,0.0,0.0
02/06/2022,01:40:46,0.001,0.0,0.0,0.0
02/06/2022,01:42:46,0.001,0.0,0.0,0.0
02/06/2022,01:44:55,0.001,0.0,0.0,0.0
02/06/2022,01:46:47,0.001,0.0,0.0,0.0
02/06/2022,01:48:46,0.000,0.0,0.0,0.0
02/06/2022,01:50:46,0.001,0.0,0.0,0.0
02/06/2022,01:52:46,0.001,0.0,0.0,0.0
02/06/2022,01:54:46,0.001,0.0,0.0,0.0
02/06/2022,01:56:55,0.001,0.0,0.0,0.0
02/06/2022,01:58:47,0.000,0.0,0.0,0.0
02/06/2022,02:00:46,0.001,0.0,0.0,0.0
02/06/2022,02:02:49,0.001,0.0,0.0,0.0
02/06/2022,02:04:46,0.001,0.0,0.0,0.0
02/06/2022,02:06:47,0.002,0.0,0.0,0.0
02/06/2022,02:08:47,0.001,0.0,0.0,0.0
02/06/2022,02:10:47,0.001,0.0,0.0,0.0
02/06/2022,02:12:47,0.001,0.0,0.0,0.0
02/06/2022,02:14:46,0.001,0.0,0.0,0.0
02/06/2022,02:16:46,0.001,0.0,0.0,0.0
02/06/2022,02:18:47,0.001,0.0,0.0,0.0
02/06/2022,02:20:55,0.001,0.0,0.0,0.0
02/06/2022,02:22:47,0.001,0.0,0.0,0.0
02/06/2022,02:24:46,0.001,0.0,0.0,0.0
02/06/2022,02:26:46,0.001,0.0,0.0,0.0
02/06/2022,02:28:46,0.001,0.0,0.0,0.0
02/06/2022,02:30:47,0.001,0.0,0.0,0.0
02/06/2022,02:32:47,0.001,0.0,0.0,0.0
02/06/2022,02:34:47,0.001,0.0,0.0,0.0
02/06/2022,02:36:55,0.001,0.0,0.0,0.0
02/06/2022,02:38:46,0.001,0.0,0.0,0.0
02/06/2022,02:40:47,0.001,0.0,0.0,0.0
02/06/2022,02:42:46,0.001,0.0,0.0,0.0
02/06/2022,02:44:47,0.001,0.0,0.0,0.0
02/06/2022,02:46:46,0.001,0.0,0.0,0.0
02/06/2022,02:48:47,0.001,0.0,0.0,0.0
02/06/2022,02:50:47,0.000,0.0,0.0,0.0
02/06/2022,02:52:47,0.001,0.0,0.0,0.0
02/06/2022,02:54:47,0.001,0.0,0.0,0.0
02/06/2022,02:56:47,0.001,0.0,0.0,0.0
02/06/2022,02:58:47,0.001,0.0,0.0,0.0
02/06/2022,03:00:46,0.001,0.0,0.0,0.0
02/06/2022,03:02:47,0.001,0.0,0.0,0.0
02/06/2022,03:04:47,0.001,0.0,0.0,0.0
02/06/2022,03:06:47,0.001,0.0,0.0,0.0
02/06/2022,03:08:55,0.001,0.0,0.0,0.0
02/06/2022,03:10:47,0.001,0.0,0.0,0.0
02/06/2022,03:12:46,0.001,0.0,0.0,0.0
02/06/2022,03:14:47,0.001,0.0,0.0,0.0
02/06/2022,03:16:47,0.001,0.0,0.0,0.0
02/06/2022,03:18:55,0.001,0.0,0.0,0.0
02/06/2022,03:20:46,0.001,0.0,0.0,0.0
02/06/2022,03:22:46,0.001,0.0,0.0,0.0
02/06/2022,03:24:47,0.001,0.0,0.0,0.0
02/06/2022,03:26:46,0.001,0.0,0.0,0.0
02/06/2022,03:28:47,0.001,0.0,0.0,0.0
02/06/2022,03:30:47,0.001,0.0,0.0,0.0
02/06/2022,03:32:46,0.002,0.0,0.0,0.0
02/06/2022,03:34:47,0.002,0.0,0.0,0.0
02/06/2022,03:36:46,0.002,0.0,0.0,0.0
02/06/2022,03:38:47,0.002,0.0,0.0,0.0
02/06/2022,03:40:47,0.003,0.0,0.0,0.0
02/06/2022,03:42:46,0.002,0.0,0.0,0.0
02/06/2022,03:44:46,0.002,0.0,0.0,0.0
02/06/2022,03:46:46,0.002,0.0,0.0,0.0
02/06/2022,03:48:47,0.002,0.0,0.0,0.0
02/06/2022,03:50:47,0.003,0.0,0.0,0.0
02/06/2022,03:52:47,0.003,0.0,0.0,0.0
02/06/2022,03:54:46,0.003,0.0,0.0,0.0
02/06/2022,03:56:47,0.003,0.0,0.0,0.0
02/06/2022,03:58:46,0.004,0.0,0.0,0.0
02/06/2022,04:00:46,0.005,0.0,0.0,0.0
02/06/2022,04:02:47,0.004,0.0,0.0,0.0
02/06/2022,04:04:47,0.004,0.0,0.0,0.0
02/06/2022,04:06:47,0.005,0.0,0.0,0.0
02/06/2022,04:08:47,0.005,0.0,0.0,0.0
02/06/2022,04:10:47,0.005,0.0,0.0,0.0
02/06/2022,04:12:47,0.006,0.0,0.0,0.0
02/06/2022,04:14:47,0.006,0.0,0.0,0.0
02/06/2022,04:16:47,0.007,0.0,0.0,0.0
02/06/2022,04:18:55,0.007,0.0,0.0,0.0
02/06/2022,04:20:47,0.008,0.0,0.001,0.001
02/06/2022,04:22:47,0.008,0.0,0.001,0.0
02/06/2022,04:24:47,0.009,0.0,0.001,0.0
02/06/2022,04:26:47,0.009,0.0,0.001,0.0
02/06/2022,04:28:47,0.010,0.0,0.002,0.001
02/06/2022,04:30:47,0.010,0.0,0.002,0.0
02/06/2022,04:32:46,0.011,0.0,0.002,0.0
02/06/2022,04:34:47,0.012,0.0,0.003,0.001
02/06/2022,04:36:47,0.013,0.0,0.003,0.0
02/06/2022,04:38:47,0.013,0.0,0.004,0.001
02/06/2022,04:40:57,0.014,0.0,0.004,0.0
02/06/2022,04:42:47,0.016,0.0,0.005,0.001
02/06/2022,04:44:46,0.016,0.0,0.005,0.0
02/06/2022,04:46:47,0.018,0.0,0.006,0.001
02/06/2022,04:48:47,0.018,0.0,0.006,0.0
02/06/2022,04:50:55,0.020,0.0,0.007,0.001
02/06/2022,04:52:47,0.021,0.0,0.008,0.001
02/06/2022,04:54:47,0.022,0.0,0.008,0.0
02/06/2022,04:56:47,0.024,0.0,0.009,0.001
02/06/2022,04:58:47,0.024,0.0,0.01,0.001
02/06/2022,05:00:56,0.025,0.0,0.011,0.001
02/06/2022,05:02:46,0.028,0.0,0.012,0.001
02/06/2022,05:04:47,0.029,0.0,0.013,0.001
02/06/2022,05:06:46,0.031,0.0,0.013,0.0
02/06/2022,05:08:47,0.032,0.0,0.015,0.002
02/06/2022,05:10:47,0.034,0.0,0.016,0.001
02/06/2022,05:12:46,0.036,0.0,0.017,0.001
02/06/2022,05:14:47,0.037,0.0,0.018,0.001
02/06/2022,05:16:47,0.040,0.0,0.019,0.001
02/06/2022,05:18:47,0.041,0.0,0.021,0.002
02/06/2022,05:20:57,0.044,0.0,0.022,0.001
02/06/2022,05:22:48,0.046,0.0,0.024,0.002
02/06/2022,05:24:46,0.047,0.0,0.025,0.001
02/06/2022,05:26:47,0.050,0.0,0.027,0.002
02/06/2022,05:28:47,0.052,0.0,0.028,0.001
02/06/2022,05:30:55,0.054,0.0,0.03,0.002
02/06/2022,05:32:47,0.058,0.0,0.032,0.002
02/06/2022,05:34:47,0.060,0.0,0.034,0.002
02/06/2022,05:36:47,0.063,0.0,0.036,0.002
02/06/2022,05:38:47,0.065,0.0,0.038,0.002
02/06/2022,05:40:55,0.070,0.0,0.041,0.003
02/06/2022,05:42:47,0.072,0.0,0.043,0.002
02/06/2022,05:44:47,0.076,0.0,0.045,0.002
02/06/2022,05:46:46,0.078,0.0,0.048,0.003
02/06/2022,05:48:46,0.082,0.0,0.05,0.002
02/06/2022,05:50:47,0.085,0.0,0.053,0.003
02/06/2022,05:52:47,0.088,0.0,0.056,0.003
02/06/2022,05:54:47,0.094,0.0,0.059,0.003
02/06/2022,05:56:48,0.096,0.0,0.062,0.003
02/06/2022,05:58:47,0.102,0.0,0.066,0.004
02/06/2022,06:00:47,0.104,0.0,0.069,0.003
02/06/2022,06:02:47,0.109,0.0,0.073,0.004
02/06/2022,06:04:47,0.112,0.0,0.076,0.003
02/06/2022,06:06:47,0.118,0.0,0.08,0.004
02/06/2022,06:08:47,0.122,0.0,0.084,0.004
02/06/2022,06:10:47,0.126,0.0,0.088,0.004
02/06/2022,06:12:47,0.130,0.0,0.092,0.004
02/06/2022,06:14:47,0.137,0.0,0.097,0.005
02/06/2022,06:16:48,0.142,0.0,0.102,0.005
02/06/2022,06:18:46,0.147,0.0,0.106,0.004
02/06/2022,06:20:47,0.152,0.0,0.111,0.005
02/06/2022,06:22:47,0.158,0.0,0.117,0.006
02/06/2022,06:24:47,0.164,0.0,0.122,0.005
02/06/2022,06:26:47,0.171,0.0,0.127,0.005
02/06/2022,06:28:47,0.175,0.0,0.133,0.006
02/06/2022,06:30:55,0.181,0.0,0.14,0.007
02/06/2022,06:32:47,0.188,0.0,0.145,0.005
02/06/2022,06:34:47,0.195,0.0,0.152,0.007
02/06/2022,06:36:47,0.202,0.0,0.158,0.006
02/06/2022,06:38:47,0.208,0.0,0.165,0.007
02/06/2022,06:40:55,0.216,0.0,0.173,0.008
02/06/2022,06:42:47,0.223,1.0,0.18,0.007
02/06/2022,06:44:47,0.230,1.0,0.187,0.007
02/06/2022,06:46:47,0.240,1.0,0.195,0.008
02/06/2022,06:48:47,0.246,1.0,0.203,0.008
02/06/2022,06:50:56,0.254,1.0,0.212,0.009
02/06/2022,06:52:47,0.262,1.0,0.22,0.008
02/06/2022,06:54:49,0.272,1.0,0.229,0.009
02/06/2022,06:56:47,0.280,1.0,0.238,0.009
02/06/2022,06:58:47,0.289,1.0,0.247,0.009
02/06/2022,07:00:47,0.297,1.0,0.257,0.01
02/06/2022,07:02:47,0.307,1.0,0.267,0.01
02/06/2022,07:04:47,0.317,1.0,0.278,0.011
02/06/2022,07:06:47,0.327,1.0,0.288,0.01
02/06/2022,07:08:47,0.335,1.0,0.299,0.011
02/06/2022,07:10:56,0.346,1.0,0.312,0.013
02/06/2022,07:12:47,0.356,1.0,0.323,0.011
02/06/2022,07:14:47,0.364,1.0,0.335,0.012
02/06/2022,07:16:47,0.375,1.0,0.347,0.012
02/06/2022,07:18:47,0.385,1.0,0.36,0.013
02/06/2022,07:20:55,0.396,1.0,0.374,0.014
02/06/2022,07:22:47,0.405,1.0,0.386,0.012
02/06/2022,07:24:47,0.417,1.0,0.4,0.014
02/06/2022,07:26:47,0.429,1.0,0.414,0.014
02/06/2022,07:28:47,0.442,1.0,0.428,0.014
02/06/2022,07:30:47,0.452,1.0,0.443,0.015
02/06/2022,07:32:47,0.465,1.0,0.459,0.016
02/06/2022,07:34:47,0.477,1.0,0.474,0.015
02/06/2022,07:36:47,0.488,1.0,0.49,0.016
02/06/2022,07:38:48,0.497,1.0,0.507,0.017
02/06/2022,07:40:47,0.510,1.0,0.523,0.016
02/06/2022,07:42:47,0.524,1.0,0.541,0.018
02/06/2022,07:44:47,0.537,1.0,0.559,0.018
02/06/2022,07:46:47,0.550,1.0,0.577,0.018
02/06/2022,07:48:47,0.563,1.0,0.595,0.018
02/06/2022,07:50:48,0.575,1.0,0.614,0.019
02/06/2022,07:52:55,0.587,1.0,0.635,0.021
02/06/2022,07:54:47,0.600,1.0,0.653,0.018
02/06/2022,07:56:48,0.611,1.0,0.674,0.021
02/06/2022,07:58:47,0.626,1.0,0.694,0.02
02/06/2022,08:00:48,0.621,1.0,0.715,0.021
02/06/2022,08:02:55,0.653,2.0,0.738,0.023
02/06/2022,08:04:47,0.666,2.0,0.758,0.02
02/06/2022,08:06:47,0.682,2.0,0.78,0.022
02/06/2022,08:08:47,0.698,2.0,0.803,0.023
02/06/2022,08:10:47,0.714,2.0,0.827,0.024
02/06/2022,08:12:55,0.731,2.0,0.853,0.026
02/06/2022,08:14:47,0.743,2.0,0.876,0.023
02/06/2022,08:16:48,0.759,2.0,0.901,0.025
02/06/2022,08:18:47,0.774,2.0,0.926,0.025
02/06/2022,08:20:47,0.785,2.0,0.953,0.027
02/06/2022,08:22:56,0.801,2.0,0.981,0.028
02/06/2022,08:24:47,0.819,2.0,1.006,0.025
02/06/2022,08:26:47,0.841,2.0,1.033,0.027
02/06/2022,08:28:48,0.771,2.0,1.062,0.029
02/06/2022,08:30:47,0.871,2.0,1.089,0.027
02/06/2022,08:32:47,0.883,2.0,1.119,0.03
02/06/2022,08:34:48,0.901,2.0,1.149,0.03
02/06/2022,08:36:47,0.919,2.0,1.178,0.029
02/06/2022,08:38:47,0.936,2.0,1.21,0.032
02/06/2022,08:40:47,0.951,2.0,1.241,0.031
02/06/2022,08:42:47,0.963,2.0,1.273,0.032
02/06/2022,08:44:47,0.991,2.0,1.305,0.032
02/06/2022,08:46:47,1.000,2.0,1.338,0.033
02/06/2022,08:48:48,1.021,2.0,1.373,0.035
02/06/2022,08:50:47,1.029,2.0,1.407,0.034
02/06/2022,08:52:48,1.051,2.0,1.442,0.035
02/06/2022,08:54:55,1.070,2.0,1.479,0.037
02/06/2022,08:56:47,1.086,2.0,1.512,0.033
02/06/2022,08:58:47,1.087,2.0,1.549,0.037
02/06/2022,09:00:47,1.114,3.0,1.585,0.036
02/06/2022,09:02:47,1.134,3.0,1.622,0.037
02/06/2022,09:04:47,1.184,3.0,1.661,0.039
02/06/2022,09:06:48,1.200,3.0,1.701,0.04
02/06/2022,09:08:47,1.192,3.0,1.741,0.04
02/06/2022,09:10:47,1.194,3.0,1.781,0.04
02/06/2022,09:12:47,1.244,3.0,1.821,0.04
02/06/2022,09:14:47,1.294,3.0,1.864,0.043
02/06/2022,09:16:55,1.288,3.0,1.91,0.046
02/06/2022,09:18:47,1.210,3.0,1.95,0.04
02/06/2022,09:20:47,0.834,2.0,1.979,0.029
02/06/2022,09:22:47,1.290,3.0,2.015,0.036
02/06/2022,09:24:48,1.388,3.0,2.06,0.045
02/06/2022,09:26:47,1.423,3.0,2.107,0.047
02/06/2022,09:28:55,1.440,3.0,2.157,0.05
02/06/2022,09:30:47,1.436,3.0,2.201,0.044
02/06/2022,09:32:47,1.466,3.0,2.25,0.049
02/06/2022,09:34:48,1.453,3.0,2.298,0.048
02/06/2022,09:36:48,1.426,3.0,2.337,0.039
02/06/2022,09:38:48,1.000,2.0,2.382,0.045
02/06/2022,09:40:47,0.886,2.0,2.412,0.03
02/06/2022,09:42:48,0.903,2.0,2.446,0.034
02/06/2022,09:44:55,1.252,3.0,2.483,0.037
02/06/2022,09:46:48,0.964,2.0,2.512,0.029
02/06/2022,09:48:47,1.004,2.0,2.547,0.035
02/06/2022,09:50:48,1.576,4.0,2.589,0.042
02/06/2022,09:52:47,1.663,4.0,2.643,0.054
02/06/2022,09:54:56,1.678,4.0,2.702,0.059
02/06/2022,09:56:47,1.658,4.0,2.753,0.051
02/06/2022,09:58:47,1.682,4.0,2.809,0.056
02/06/2022,10:00:47,1.683,4.0,2.867,0.058
02/06/2022,10:02:48,1.086,2.0,2.909,0.042
02/06/2022,10:04:47,1.112,3.0,2.945,0.036
02/06/2022,10:06:56,1.743,4.0,3.002,0.057
02/06/2022,10:08:55,1.774,4.0,3.061,0.059
02/06/2022,10:10:48,1.770,4.0,3.116,0.055
02/06/2022,10:12:56,1.333,3.0,3.166,0.05
02/06/2022,10:14:47,1.308,3.0,3.211,0.045
02/06/2022,10:16:47,1.434,3.0,3.264,0.053
02/06/2022,10:18:47,1.044,2.0,3.31,0.046
02/06/2022,10:20:47,0.991,2.0,3.344,0.034
02/06/2022,10:22:55,1.000,2.0,3.379,0.035
02/06/2022,10:24:47,1.045,2.0,3.412,0.033
02/06/2022,10:26:48,1.107,3.0,3.448,0.036
02/06/2022,10:28:47,1.261,3.0,3.493,0.045
02/06/2022,10:30:47,1.773,4.0,3.543,0.05
02/06/2022,10:32:47,1.843,4.0,3.604,0.061
02/06/2022,10:34:47,1.701,4.0,3.665,0.061
02/06/2022,10:36:48,1.306,3.0,3.719,0.054
02/06/2022,10:38:47,1.178,3.0,3.768,0.049
02/06/2022,10:40:38,1.776,4.0,3.816,0.048
02/06/2022,10:42:50,1.106,3.0,3.873,0.057
02/06/2022,10:44:47,1.368,3.0,3.911,0.038
02/06/2022,10:46:48,1.026,2.0,3.956,0.045
02/06/2022,10:48:47,0.934,2.0,3.988,0.032
02/06/2022,10:50:56,0.897,2.0,4.021,0.033
02/06/2022,10:52:48,0.890,2.0,4.048,0.027
02/06/2022,10:54:38,0.904,2.0,4.076,0.028
02/06/2022,10:56:49,1.424,3.0,4.114,0.038
02/06/2022,10:58:48,1.108,3.0,4.162,0.048
02/06/2022,11:00:48,1.059,2.0,4.199,0.037
02/06/2022,11:02:47,1.108,3.0,4.239,0.04
02/06/2022,11:04:48,1.519,3.0,4.281,0.042
02/06/2022,11:06:48,1.065,2.0,4.333,0.052
02/06/2022,11:08:48,1.029,2.0,4.368,0.035
02/06/2022,11:10:47,0.990,2.0,4.401,0.033
02/06/2022,11:12:47,0.962,2.0,4.434,0.033
02/06/2022,11:14:47,0.988,2.0,4.466,0.032
02/06/2022,11:16:47,1.757,4.0,4.51,0.044
02/06/2022,11:18:55,1.103,3.0,4.559,0.049
02/06/2022,11:20:47,1.083,2.0,4.595,0.036
02/06/2022,11:22:48,1.011,2.0,4.631,0.036
02/06/2022,11:24:48,0.952,2.0,4.663,0.032
02/06/2022,11:26:47,0.931,2.0,4.694,0.031
02/06/2022,11:28:47,0.955,2.0,4.726,0.032
02/06/2022,11:30:48,0.979,2.0,4.758,0.032
02/06/2022,11:32:48,1.036,2.0,4.792,0.034
02/06/2022,11:34:47,1.538,4.0,4.83,0.038
02/06/2022,11:36:48,1.902,4.0,4.886,0.056
02/06/2022,11:38:48,1.239,3.0,4.948,0.062
02/06/2022,11:40:47,1.230,3.0,4.989,0.041
02/06/2022,11:42:48,1.290,3.0,5.036,0.047
02/06/2022,11:44:48,1.487,3.0,5.081,0.045
02/06/2022,11:46:55,1.217,3.0,5.145,0.064
02/06/2022,11:48:56,1.129,3.0,5.184,0.039
02/06/2022,11:50:47,1.119,3.0,5.219,0.035
02/06/2022,11:52:48,1.090,3.0,5.256,0.037
02/06/2022,11:54:47,1.119,3.0,5.292,0.036
02/06/2022,11:56:48,1.295,3.0,5.332,0.04
02/06/2022,11:58:56,1.551,4.0,5.377,0.045
02/06/2022,12:01:00,2.113,5.0,5.438,0.061
02/06/2022,12:02:48,1.666,4.0,5.494,0.056
02/06/2022,12:04:48,2.272,5.0,5.56,0.066
02/06/2022,12:06:48,2.303,5.0,5.637,0.077
02/06/2022,12:08:47,2.316,5.0,5.714,0.077
02/06/2022,12:10:48,2.280,5.0,5.791,0.077
02/06/2022,12:12:48,2.333,5.0,5.868,0.077
02/06/2022,12:14:48,2.357,5.0,5.946,0.078
02/06/2022,12:16:55,2.356,5.0,6.03,0.084
02/06/2022,12:18:48,2.349,5.0,6.103,0.073
02/06/2022,12:20:48,2.324,5.0,6.181,0.078
02/06/2022,12:22:47,2.331,5.0,6.259,0.078
02/06/2022,12:24:47,2.350,5.0,6.335,0.076
02/06/2022,12:26:56,2.376,5.0,6.421,0.086
02/06/2022,12:28:47,2.370,5.0,6.495,0.074
02/06/2022,12:30:48,2.331,5.0,6.573,0.078
02/06/2022,12:32:48,2.319,5.0,6.65,0.077
02/06/2022,12:34:47,2.277,5.0,6.727,0.077
02/06/2022,12:36:47,2.256,5.0,6.802,0.075
02/06/2022,12:38:56,2.261,5.0,6.882,0.08
02/06/2022,12:40:48,2.236,5.0,6.952,0.07
02/06/2022,12:42:47,2.193,5.0,7.026,0.074
02/06/2022,12:44:47,2.183,5.0,7.099,0.073
02/06/2022,12:46:47,1.844,4.0,7.167,0.068
02/06/2022,12:48:49,2.029,5.0,7.23,0.063
02/06/2022,12:50:48,2.104,5.0,7.299,0.069
02/06/2022,12:52:47,2.156,5.0,7.37,0.071
02/06/2022,12:54:48,2.205,5.0,7.443,0.073
02/06/2022,12:56:56,2.247,5.0,7.523,0.08
02/06/2022,12:58:47,2.247,5.0,7.593,0.07
02/06/2022,13:00:47,2.233,5.0,7.667,0.074
02/06/2022,13:02:48,2.191,5.0,7.741,0.074
02/06/2022,13:04:48,2.184,5.0,7.814,0.073
02/06/2022,13:06:48,2.179,5.0,7.886,0.072
02/06/2022,13:08:48,2.163,5.0,7.959,0.073
02/06/2022,13:10:47,2.144,5.0,8.031,0.072
02/06/2022,13:12:48,2.115,5.0,8.102,0.071
02/06/2022,13:14:48,2.145,5.0,8.173,0.071
02/06/2022,13:16:48,2.117,5.0,8.244,0.071
02/06/2022,13:18:48,2.075,5.0,8.314,0.07
02/06/2022,13:20:47,2.051,5.0,8.383,0.069
02/06/2022,13:22:48,1.873,4.0,8.45,0.067
02/06/2022,13:24:47,1.208,3.0,8.503,0.053
02/06/2022,13:26:48,1.178,3.0,8.543,0.04
02/06/2022,13:28:47,1.268,3.0,8.583,0.04
02/06/2022,13:30:48,1.653,4.0,8.627,0.044
02/06/2022,13:32:48,1.295,3.0,8.68,0.053
02/06/2022,13:34:47,1.963,5.0,8.735,0.055
02/06/2022,13:36:48,1.373,3.0,8.792,0.057
02/06/2022,13:38:48,1.965,5.0,8.851,0.059
02/06/2022,13:40:48,1.962,5.0,8.916,0.065
02/06/2022,13:42:48,1.967,5.0,8.981,0.065
02/06/2022,13:44:48,1.949,4.0,9.047,0.066
02/06/2022,13:46:48,1.888,4.0,9.111,0.064
02/06/2022,13:48:48,1.907,4.0,9.174,0.063
02/06/2022,13:50:48,1.895,4.0,9.237,0.063
02/06/2022,13:52:48,1.869,4.0,9.299,0.062
02/06/2022,13:54:48,1.862,4.0,9.361,0.062
02/06/2022,13:56:48,1.861,4.0,9.424,0.063
02/06/2022,13:58:48,1.838,4.0,9.485,0.061
02/06/2022,14:00:48,1.823,4.0,9.546,0.061
02/06/2022,14:02:48,1.807,4.0,9.607,0.061
02/06/2022,14:04:47,1.816,4.0,9.667,0.06
02/06/2022,14:06:48,1.785,4.0,9.727,0.06
02/06/2022,14:08:48,1.676,4.0,9.785,0.058
02/06/2022,14:10:47,1.376,3.0,9.837,0.052
02/06/2022,14:12:48,0.970,2.0,9.872,0.035
02/06/2022,14:14:56,0.922,2.0,9.906,0.034
02/06/2022,14:16:48,0.883,2.0,9.934,0.028
02/06/2022,14:18:47,0.832,2.0,9.962,0.028
02/06/2022,14:20:48,0.782,2.0,9.989,0.027
02/06/2022,14:22:48,0.753,2.0,10.015,0.026
02/06/2022,14:24:48,0.739,2.0,10.039,0.024
02/06/2022,14:26:48,0.731,2.0,10.064,0.025
02/06/2022,14:28:48,0.723,2.0,10.088,0.024
02/06/2022,14:30:48,0.716,2.0,10.112,0.024
02/06/2022,14:32:56,0.714,2.0,10.138,0.026
02/06/2022,14:34:48,0.711,2.0,10.16,0.022
02/06/2022,14:36:48,0.712,2.0,10.183,0.023
02/06/2022,14:38:48,0.708,2.0,10.207,0.024
02/06/2022,14:40:48,0.701,2.0,10.231,0.024
02/06/2022,14:42:48,0.702,2.0,10.254,0.023
02/06/2022,14:44:56,0.701,2.0,10.279,0.025
02/06/2022,14:46:47,0.704,2.0,10.301,0.022
02/06/2022,14:48:47,0.742,2.0,10.325,0.024
02/06/2022,14:50:57,1.176,3.0,10.363,0.038
02/06/2022,14:52:47,1.154,3.0,10.399,0.036
02/06/2022,14:54:48,0.996,2.0,10.437,0.038
02/06/2022,14:56:48,0.656,2.0,10.461,0.024
02/06/2022,14:58:48,0.685,2.0,10.482,0.021
02/06/2022,15:00:48,0.609,1.0,10.504,0.022
02/06/2022,15:02:48,0.602,1.0,10.524,0.02
02/06/2022,15:04:48,0.597,1.0,10.544,0.02
02/06/2022,15:06:48,0.601,1.0,10.564,0.02
02/06/2022,15:08:48,0.603,1.0,10.584,0.02
02/06/2022,15:10:47,0.595,1.0,10.604,0.02
02/06/2022,15:12:48,0.582,1.0,10.624,0.02
02/06/2022,15:14:48,0.592,1.0,10.643,0.019
02/06/2022,15:16:48,0.644,1.0,10.667,0.024
02/06/2022,15:18:48,0.596,1.0,10.687,0.02
02/06/2022,15:20:56,0.593,1.0,10.708,0.021
02/06/2022,15:22:48,0.584,1.0,10.726,0.018
02/06/2022,15:24:48,0.576,1.0,10.745,0.019
02/06/2022,15:26:48,0.580,1.0,10.765,0.02
02/06/2022,15:28:47,0.589,1.0,10.784,0.019
02/06/2022,15:30:48,0.591,1.0,10.804,0.02
02/06/2022,15:32:56,0.586,1.0,10.825,0.021
02/06/2022,15:34:47,0.830,2.0,10.844,0.019
02/06/2022,15:36:47,0.524,1.0,10.864,0.02
02/06/2022,15:38:48,0.496,1.0,10.881,0.017
02/06/2022,15:40:48,0.482,1.0,10.897,0.016
02/06/2022,15:42:48,0.482,1.0,10.913,0.016
02/06/2022,15:44:48,0.492,1.0,10.929,0.016
02/06/2022,15:46:46,0.501,1.0,10.946,0.017
02/06/2022,15:48:48,0.502,1.0,10.963,0.017
02/06/2022,15:50:48,0.510,1.0,10.98,0.017
02/06/2022,15:52:48,0.521,1.0,10.997,0.017
02/06/2022,15:54:47,0.517,1.0,11.014,0.017
02/06/2022,15:56:47,0.520,1.0,11.032,0.018
02/06/2022,15:58:48,0.517,1.0,11.049,0.017
02/06/2022,16:00:48,0.525,1.0,11.067,0.018
02/06/2022,16:02:48,0.536,1.0,11.084,0.017
02/06/2022,16:04:48,0.735,2.0,11.106,0.022
02/06/2022,16:06:48,0.710,2.0,11.129,0.023
02/06/2022,16:08:47,0.703,2.0,11.153,0.024
02/06/2022,16:10:48,0.597,1.0,11.176,0.023
02/06/2022,16:12:48,0.651,1.0,11.198,0.022
02/06/2022,16:14:49,0.534,1.0,11.218,0.02
02/06/2022,16:16:48,0.444,1.0,11.236,0.018
02/06/2022,16:18:56,0.397,1.0,11.251,0.015
02/06/2022,16:20:48,0.371,1.0,11.263,0.012
02/06/2022,16:22:48,0.349,1.0,11.275,0.012
02/06/2022,16:24:48,0.334,1.0,11.286,0.011
02/06/2022,16:26:48,0.320,1.0,11.297,0.011
02/06/2022,16:28:48,0.319,1.0,11.308,0.011
02/06/2022,16:30:48,0.324,1.0,11.318,0.01
02/06/2022,16:32:48,0.329,1.0,11.329,0.011
02/06/2022,16:34:48,0.328,1.0,11.34,0.011
02/06/2022,16:36:57,0.323,1.0,11.352,0.012
02/06/2022,16:38:47,0.320,1.0,11.362,0.01
02/06/2022,16:40:47,0.318,1.0,11.373,0.011
02/06/2022,16:42:48,0.315,1.0,11.383,0.01
02/06/2022,16:44:48,0.311,1.0,11.394,0.011
02/06/2022,16:46:47,0.300,1.0,11.404,0.01
02/06/2022,16:48:58,0.286,1.0,11.414,0.01
02/06/2022,16:50:48,0.277,1.0,11.423,0.009
02/06/2022,16:52:48,0.268,1.0,11.432,0.009
02/06/2022,16:54:48,0.259,1.0,11.441,0.009
02/06/2022,16:56:48,0.252,1.0,11.449,0.008
02/06/2022,16:58:48,0.251,1.0,11.458,0.009
02/06/2022,17:00:48,0.254,1.0,11.466,0.008
02/06/2022,17:02:48,0.259,1.0,11.475,0.009
02/06/2022,17:04:57,0.265,1.0,11.484,0.009
02/06/2022,17:06:48,0.267,1.0,11.492,0.008
02/06/2022,17:08:48,0.268,1.0,11.501,0.009
02/06/2022,17:10:48,0.261,1.0,11.51,0.009
02/06/2022,17:12:48,0.252,1.0,11.519,0.009
02/06/2022,17:14:48,0.240,1.0,11.527,0.008
02/06/2022,17:16:57,0.226,1.0,11.535,0.008
02/06/2022,17:18:48,0.216,0.0,11.542,0.007
02/06/2022,17:20:48,0.205,0.0,11.549,0.007
02/06/2022,17:22:48,0.200,0.0,11.556,0.007
02/06/2022,17:24:48,0.200,0.0,11.562,0.006
02/06/2022,17:26:48,0.200,0.0,11.569,0.007
02/06/2022,17:28:48,0.201,0.0,11.576,0.007
02/06/2022,17:30:48,0.189,0.0,11.582,0.006
02/06/2022,17:32:49,0.185,0.0,11.589,0.007
02/06/2022,17:34:48,0.178,0.0,11.595,0.006
02/06/2022,17:36:48,0.173,0.0,11.6,0.005
02/06/2022,17:38:49,0.169,0.0,11.606,0.006
02/06/2022,17:40:48,0.164,0.0,11.612,0.006
02/06/2022,17:42:48,0.164,0.0,11.617,0.005
02/06/2022,17:44:57,0.166,0.0,11.623,0.006
02/06/2022,17:46:48,0.164,0.0,11.628,0.005
02/06/2022,17:48:55,0.162,0.0,11.634,0.006
02/06/2022,17:50:48,0.155,0.0,11.639,0.005
02/06/2022,17:52:48,0.155,0.0,11.644,0.005
02/06/2022,17:54:48,0.154,0.0,11.649,0.005
02/06/2022,17:56:56,0.153,0.0,11.655,0.006
02/06/2022,17:58:39,0.153,0.0,11.659,0.004
02/06/2022,18:00:50,0.145,0.0,11.664,0.005
02/06/2022,18:02:56,0.138,0.0,11.669,0.005
02/06/2022,18:04:48,0.135,0.0,11.674,0.005
02/06/2022,18:06:48,0.129,0.0,11.678,0.004
02/06/2022,18:08:49,0.125,0.0,11.682,0.004
02/06/2022,18:10:39,0.117,0.0,11.686,0.004
02/06/2022,18:12:49,0.111,0.0,11.69,0.004
02/06/2022,18:14:56,0.105,0.0,11.694,0.004
02/06/2022,18:16:48,0.099,0.0,11.697,0.003
02/06/2022,18:18:48,0.093,0.0,11.7,0.003
02/06/2022,18:20:48,0.086,0.0,11.703,0.003
02/06/2022,18:22:48,0.084,0.0,11.706,0.003
02/06/2022,18:24:48,0.079,0.0,11.709,0.003
02/06/2022,18:26:49,0.072,0.0,11.711,0.002
02/06/2022,18:28:48,0.067,0.0,11.714,0.003
02/06/2022,18:30:57,0.062,0.0,11.716,0.002
02/06/2022,18:32:48,0.057,0.0,11.718,0.002
02/06/2022,18:34:48,0.054,0.0,11.719,0.001
02/06/2022,18:36:49,0.050,0.0,11.721,0.002
02/06/2022,18:38:48,0.047,0.0,11.723,0.002
02/06/2022,18:40:48,0.044,0.0,11.724,0.001
02/06/2022,18:42:57,0.042,0.0,11.726,0.002
02/06/2022,18:44:48,0.039,0.0,11.727,0.001
02/06/2022,18:46:48,0.038,0.0,11.728,0.001
02/06/2022,18:48:49,0.035,0.0,11.73,0.002
02/06/2022,18:50:48,0.033,0.0,11.731,0.001
02/06/2022,18:52:49,0.032,0.0,11.732,0.001
02/06/2022,18:54:48,0.030,0.0,11.733,0.001
02/06/2022,18:56:48,0.028,0.0,11.734,0.001
02/06/2022,18:58:48,0.027,0.0,11.735,0.001
02/06/2022,19:00:49,0.024,0.0,11.736,0.001
02/06/2022,19:02:49,0.024,0.0,11.736,0.0
02/06/2022,19:04:48,0.023,0.0,11.737,0.001
02/06/2022,19:06:49,0.023,0.0,11.738,0.001
02/06/2022,19:08:48,0.022,0.0,11.739,0.001
02/06/2022,19:10:49,0.021,0.0,11.739,0.0
02/06/2022,19:12:56,0.020,0.0,11.74,0.001
02/06/2022,19:14:48,0.019,0.0,11.741,0.001
02/06/2022,19:16:48,0.018,0.0,11.741,0.0
02/06/2022,19:18:48,0.015,0.0,11.742,0.001
02/06/2022,19:20:49,0.015,0.0,11.742,0.0
02/06/2022,19:22:48,0.014,0.0,11.743,0.001
02/06/2022,19:24:48,0.013,0.0,11.743,0.0
02/06/2022,19:26:49,0.013,0.0,11.744,0.001
02/06/2022,19:28:57,0.011,0.0,11.744,0.0